{"data":{"norad_id":52789,"epoch":"2026-05-24T21:47:14.506656Z","epoch_age_seconds":76268,"freshness":"FRESH","line1":"1 52789U 22058E   26144.90780679  .00003845  00000+0  32246-3 0  9990","line2":"2 52789  49.9869 291.4775 0001349 281.1263  78.9530 15.00445042216717","mean_motion":15.00445042,"eccentricity":0.0001349,"inclination_deg":49.9869,"raan_deg":291.4775,"arg_perigee_deg":281.1263,"mean_anomaly_deg":78.953,"bstar":0.00032246,"rev_number":21671,"period_min":95.971525760155,"perigee_km":564.58628257195,"apogee_km":566.45968203517,"semimajor_km":6943.6599823036,"source":"CELESTRAK","updated_at":"2026-05-25T13:37:57.889476Z"}}